Reflectivity
-20 -12 8 4 14 14 11 12 -20 9 -20 -20 12 29 33 21 26 19 7 -19 2 -8 -20 -20 -20 -20 -20 -20 -20 -20 -20 -20 -20 -20 -20 -20 -20 -20 -20 -20 -20 -20 -20 -20 -20 -20 -20 -20 -20 -20 -20 -20 -20 -20
-20 -19 -6 6 15 16 6 12 -8 4 -20 -20 11 22 26 24 26 12 -4 -4 6 -20 -20 -20 -20 -20 -20 -20 -20 -20 -20 -20 -20 -20 -20 -20 -20 -20 -20 -20 -20 -20 -20 -20 -20 -20 -20 -20 -20 -20 -20 -20 -20 -20
-20 -20 -4 8 16 17 5 7 8 -14 -20 -20 -7 23 22 30 27 22 -15 2 -0 1 -20 -20 -20 -20 -20 -20 -20 -20 -20 -20 -20 -20 -20 -20 -20 -20 -20 -20 -20 -20 -20 -20 -20 -20 -20 -20 -20 -20 -20 -20 -20 -20
-12 -6 5 4 15 17 15 5 0 -2 -20 -20 3 21 20 25 24 5 -7 -6 -8 -1 -20 -20 -20 -20 -20 -20 -20 -20 -20 -20 -20 -20 -20 -20 -20 -20 -20 -20 -20 -20 -20 -20 -20 -20 -20 -20 -20 -20 -20 -20 -20 -20
5 9 6 6 14 16 11 12 -16 3 -20 -18 17 13 22 24 19 2 -7 -11 9 0 -19 -20 -20 -20 -20 -20 -20 -20 -20 -20 -20 -20 -20 -20 -20 -20 -20 -20 -20 -20 -20 -20 -20 -20 -20 -20 -20 -20 -20 -20 -20 -20
16 19 9 10 10 19 16 -19 -20 -2 -20 -13 7 15 26 26 19 -0 -1 -20 -20 -20 -20 -20 -20 -20 -20 -20 -20 -20 -20 -20 -20 -20 -20 -20 -20 -20 -20 -20 -20 -20 -20 -20 -20 -20 -20 -20 -20 -20 -20 -20 -20 -20
11 10 2 10 1 15 -14 -20 -20 2 -20 7 19 17 25 25 19 1 -17 3 -20 -10 -3 -20 -20 5 -18 -20 -20 -20 -20 -20 -20 -20 -20 -20 -20 -20 -20 -20 -20 -20 -20 -20 -20 -20 -20 -20 -20 -20 -20 -20 -20 -20
13 13 12 14 16 6 -19 -20 -20 -8 -14 11 21 26 28 32 31 17 6 9 -3 -12 6 -17 -9 -8 -20 -20 -20 -20 -20 -20 -20 -20 -20 -20 -20 -20 -20 -20 -20 -20 -20 -20 -20 -20 -20 -20 -20 -20 -20 -20 -20 -9
12 -12 17 19 19 -2 -20 -20 -20 -4 3 28 31 27 26 28 31 29 9 13 -4 0 -5 -19 -20 -20 -20 -20 -20 -20 -20 -20 -20 -20 -20 -20 -20 -20 -20 -20 -20 -20 -20 -20 -20 -20 -20 -20 -20 -20 -20 -16 3 -10
8 17 19 25 21 -9 11 -20 -5 -9 35 27 18 22 27 22 16 16 13 15 8 6 -20 -20 -20 -20 -20 -20 -20 -20 -20 -20 -20 -20 -20 -20 -20 -20 -20 -20 -20 -20 -20 -20 -20 -20 -20 -20 -20 -20 -20 -12 12 12
12 16 21 25 -18 11 12 14 -3 38 31 26 28 13 17 24 25 12 10 9 3 -13 -20 -20 -20 -20 -20 -20 -20 -20 -20 -20 -20 -20 -20 -20 -20 -20 -20 -20 -20 -20 -20 -20 -20 -20 -9 -20 -20 -20 1 -8 3 -5
7 16 19 -1 12 16 8 6 33 29 35 19 9 17 6 26 27 16 12 -8 -17 -20 -20 -20 -20 -20 -20 -20 -20 -11 -20 -20 -20 -20 -20 -20 -20 -20 -20 -20 -20 -20 -20 -20 -20 -20 -20 -9 -20 -20 -18 -11 3 -15
0 6 15 5 5 -20 20 23 27 32 25 8 -6 4 18 17 8 -17 -19 -20 -20 -20 -20 -20 -20 -20 -20 -20 -20 -20 -20 -20 -20 -20 -20 -20 -20 -20 -20 -20 -20 -20 -20 -20 -20 -20 -20 -17 -7 -20 -20 -20 -20 -20
12 15 19 10 17 21 36 41 36 27 14 -14 -8 -6 -7 -6 -20 -20 -20 -20 -12 2 8 -20 -20 -20 -20 -20 -20 -20 -20 -20 -3 -20 -20 -20 -20 -20 -20 -20 -20 -20 -20 -20 -20 -20 -20 -20 -7 -20 -20 -20 -20 -20
16 9 -14 17 4 32 35 36 32 27 16 2 -15 -18 -20 -20 -20 -20 -20 -18 10 2 -17 -20 -20 -20 -20 -20 -20 -20 -16 -20 -20 -20 -20 -20 -20 -20 -20 -20 -20 -20 -20 -20 -20 -20 -20 -20 -20 -20 -20 -20 -20 -20
-7 -16 -20 -6 26 27 36 36 29 25 8 -20 -20 -20 -20 -20 -20 -20 -20 11 5 -20 -20 -20 -20 -20 -20 -20 -20 -20 -20 -20 -20 -20 -20 -20 -20 -20 -20 -20 -20 -20 -20 -6 -20 -20 -20 -20 -20 -20 -20 -20 -20 -20
-20 -19 9 8 29 35 30 31 27 22 8 -7 -20 -20 -20 -1 -16 -20 -14 -0 -20 -20 -20 -20 -20 -20 -20 -20 -20 -20 -20 -20 -20 -20 -20 -20 -20 -20 -20 -20 -20 -20 -20 -20 -20 -20 -20 -20 -20 -20 -20 -20 -20 -20
-0 23 28 32 34 32 33 28 20 11 5 -8 -20 -20 -20 -17 -20 -4 -13 -20 -20 -20 -20 -20 -20 -20 -20 -20 -20 -20 -20 -20 -20 -20 -20 -20 -20 -20 -20 -20 -20 -20 -20 -20 -20 -20 -20 -15 -20 -20 -20 -20 -14 -20
5 14 31 31 25 31 29 24 21 -2 -11 -18 -19 -5 2 14 14 5 -20 -20 -20 -20 -20 -20 -20 -20 -20 -20 -20 -20 -20 -20 -20 -20 -20 -20 -20 -20 -20 -20 -20 -20 -20 -20 -20 -20 -20 -20 -20 -20 -20 -20 -20 -20
13 5 11 16 32 31 11 15 16 -19 -20 -8 8 14 19 17 18 5 -20 -20 -20 -20 -20 -20 -20 -20 -20 -20 -20 -20 -20 -20 -20 -20 -20 -20 -20 -20 -20 -20 -20 -20 -20 -20 -20 2 -20 -20 -20 -20 -20 -20 -20 -20
37 28 21 28 29 20 11 -18 -20 -18 1 13 13 19 20 21 17 -8 -20 -20 -20 -20 -20 -20 -20 -20 -20 -20 -20 -20 -20 -20 -20 -20 -20 -20 -20 -20 -20 -20 -20 -20 -20 -20 -20 -20 -20 -20 -20 -20 -20 -20 -20 -20
31 30 31 27 25 20 9 -20 -20 -15 3 12 14 8 6 9 5 4 1 -18 -20 -20 -20 -20 -20 -20 -20 -20 -20 -20 -20 -20 -20 -20 -20 -20 -20 -20 -20 -20 -20 -20 -20 -20 -20 -20 -20 -20 -20 -20 -20 -20 -20 -20
20 20 30 29 19 13 9 -4 -4 10 12 13 15 11 11 7 -9 -6 -20 -20 -20 -20 -20 -20 -20 -20 -20 -20 -20 -20 -20 -20 -20 -20 -20 -20 -20 -20 -20 -20 -20 -20 -20 -20 -20 -20 -20 -20 -20 -20 -20 -20 -20 -20
19 29 24 19 16 6 2 7 11 15 14 15 15 12 -0 -12 -6 -15 -20 -20 -20 -20 -20 -20 -20 -20 -20 -20 -20 -20 -20 -20 -20 -20 -20 -20 -20 -20 -20 -20 -20 -20 -20 -20 -20 -20 -20 -20 -20 -20 -20 -20 -20 -20
27 21 19 15 -1 -20 -20 -20 -2 8 9 10 6 2 -1 -14 -20 -20 -20 -20 -20 -20 -20 -20 -20 -20 -20 -20 -20 -20 -20 -20 -20 -20 -20 -20 -20 -20 -20 -20 -20 -20 -20 -20 -20 -20 -20 -20 -20 -20 -20 -20 -20 -20
13 4 -0 -9 -20 -20 -20 -6 -1 6 1 8 6 6 8 6 -6 -20 -18 1 -20 -20 -20 -20 -20 -20 -20 -20 -20 -20 -20 -20 -20 -20 -20 -20 -20 -20 -20 -20 -20 -20 -20 -20 -20 -20 -20 -20 -20 -20 -20 -20 -20 -20
-1 -18 -20 -17 3 -17 -15 0 5 -2 6 4 -5 1 6 3 -19 -20 -14 -20 -20 -20 -20 -20 -20 -20 -20 -20 -20 -20 -20 -20 -20 -20 -20 -20 -20 -20 -20 -20 -20 -20 -20 -20 -20 -20 -20 -20 -20 -20 -20 -20 -20 -20
-18 -20 -20 -2 8 11 10 12 10 10 11 4 10 11 6 -19 -20 -19 -9 -19 -20 -20 -20 -20 -20 -20 -20 -20 -20 -20 -20 -20 -20 -20 -20 -20 -20 -20 -20 -20 -20 -20 -20 -20 -20 -20 -20 -20 -20 -20 -20 -20 -20 -20
-20 -20 -18 -6 4 10 9 8 6 4 -10 -1 4 2 -20 -20 -20 -20 -20 -20 -20 -20 -20 -20 -20 -20 -20 -20 -20 -20 -20 -20 -20 -20 -20 -20 -20 -20 -20 -20 -20 -20 -20 -20 -20 -20 -20 -20 -20 -17 -20 -20 -20 -20
-20 -20 -18 1 3 1 -4 -16 -20 -20 -20 -2 2 -14 -20 -20 -20 -20 -20 -20 -20 -20 -20 -20 -20 -20 -20 -20 -20 -20 -20 -20 -20 -20 -20 -20 -20 -20 -20 -20 -20 -20 -20 -20 -20 -20 -20 -20 -20 -20 -20 -20 -20 -20
5 1 -7 -2 -7 -7 -2 6 4 4 -6 -19 -20 -20 -20 -20 -20 -20 -20 -20 -20 -20 -20 -20 -20 -20 -20 -20 -20 -20 -20 -20 -20 -20 -20 -20 -20 -20 -20 -20 -20 -20 -20 -20 -20 -20 -20 -20 -20 -20 -20 -20 -20 -20
5 2 3 4 6 8 6 3 -1 -4 -7 -8 -20 -20 -20 -20 -20 -20 -20 -20 -20 -20 -20 -20 -20 -20 -20 -20 -20 -20 -20 -20 -20 -20 -20 -20 -20 -20 -20 -20 -20 -20 -20 -20 -20 -20 -20 -20 -20 -20 -20 -20 -20 -20
-19 -9 -19 -6 -0 -9 -19 -20 -20 -20 -20 -20 -20 -20 -20 -20 -20 -20 -20 -20 -20 -20 -20 -20 -20 -20 -20 -20 -20 -20 -20 -20 -20 -20 -20 -20 -20 -20 -20 -20 -20 -20 -20 -20 -20 -20 -20 -20 -20 -20 -20 -20 -20 -20
Wind_Speed
29 28 28 28 26 24 21 20 20 19 17 17 15 15 6 29 20 5 1 2 2 4 3 4 5 3 3 3 5 5 5 2 2 3 4 3 3 3 2 4 6 6 5 4 3 2 6 3 4 2 0 3 2 5
29 30 29 28 27 24 22 20 19 18 15 16 14 16 18 27 23 5 3 2 4 7 3 4 3 3 3 1 6 1 2 4 5 5 1 3 2 2 3 3 1 2 6 4 8 6 3 1 2 3 3 2 3 3
30 31 31 29 28 25 23 20 20 19 15 14 13 17 18 25 23 7 3 3 4 4 3 4 4 6 4 3 2 5 2 4 2 3 4 2 3 4 3 5 2 3 2 3 1 1 0 2 1 2 4 3 5 5
32 32 31 31 28 26 23 22 20 20 16 15 11 16 12 29 25 7 3 2 4 5 5 2 3 4 9 5 2 2 6 5 5 3 3 3 3 2 3 2 3 4 3 3 5 4 3 1 2 2 5 6 7 7
34 34 34 32 29 26 24 22 20 21 17 15 11 12 22 29 18 6 2 1 2 5 5 3 1 6 6 5 10 9 7 5 3 3 3 1 2 3 1 1 4 6 7 6 6 3 2 5 5 7 8 10 7 7
35 35 33 31 29 27 26 23 21 21 17 14 9 12 23 29 17 3 3 2 1 5 7 4 1 3 5 6 9 8 5 4 3 3 2 1 1 3 2 4 5 4 3 4 3 2 5 7 6 5 4 10 9 8
35 35 34 30 28 26 27 25 23 21 17 14 13 16 27 28 7 3 3 2 4 3 6 5 2 2 2 3 3 4 4 3 3 2 2 2 0 4 2 4 2 6 6 3 0 2 3 1 5 7 8 9 9 7
36 36 34 32 29 26 28 26 24 22 18 16 16 26 25 23 13 4 4 4 2 6 5 5 2 1 1 2 2 2 2 3 4 1 1 1 0 1 6 8 2 5 5 3 3 5 5 5 6 6 7 6 7 7
33 33 33 32 30 28 29 28 24 22 14 17 31 31 12 5 3 3 2 5 3 2 5 3 6 5 1 1 2 2 2 3 1 1 1 2 2 8 8 6 6 7 5 4 2 4 2 2 6 6 7 8 7 6
33 33 29 29 31 32 30 28 27 7 32 41 20 7 4 3 9 7 5 3 4 3 4 3 3 4 4 2 1 3 2 2 1 2 2 2 6 6 5 5 6 7 6 5 3 2 1 3 4 6 7 7 5 5
14 25 28 32 33 31 29 29 17 37 35 5 5 4 5 11 4 4 2 3 0 1 3 4 4 6 2 4 3 2 3 2 3 4 4 3 6 5 4 8 7 6 6 5 3 2 3 3 4 5 6 5 5 5
22 28 31 32 30 30 19 28 46 11 4 10 14 8 3 4 3 5 3 1 4 8 3 6 5 5 3 3 4 3 4 3 3 3 2 5 6 4 5 6 6 5 5 4 2 1 2 0 2 3 3 4 4 4
25 28 29 31 31 23 29 43 26 36 32 10 7 5 5 2 3 11 10 5 4 6 7 6 5 5 3 2 3 3 4 4 3 3 6 7 3 4 4 5 6 5 3 3 1 2 1 1 1 1 2 2 2 2
26 27 30 31 22 16 28 37 40 21 6 5 6 8 7 7 7 7 5 7 4 7 12 5 5 5 3 3 4 6 3 4 3 5 9 4 7 7 7 5 6 5 4 3 1 1 0 0 0 1 2 2 2 2
27 27 30 22 18 26 32 33 16 6 4 3 5 6 6 3 3 2 3 6 3 11 9 6 5 4 2 4 2 4 5 5 7 7 4 4 6 9 8 8 6 5 4 3 2 1 1 1 1 2 3 4 3 3
24 19 5 17 25 28 28 13 5 3 3 4 4 4 4 5 3 2 3 7 6 9 4 4 5 4 2 6 5 7 9 9 6 5 4 4 7 7 7 9 6 5 5 4 3 2 1 1 1 3 5 5 4 4
11 2 10 34 30 26 14 5 3 4 3 3 2 3 2 3 4 3 5 3 8 3 4 5 6 7 4 3 3 5 8 5 4 3 2 5 10 8 7 6 7 6 5 5 3 4 3 3 4 4 5 4 5 5
3 9 14 35 16 8 3 4 3 4 5 2 3 1 1 2 6 5 3 7 4 2 3 5 6 4 6 8 5 5 3 1 1 2 3 4 6 6 6 7 7 7 5 4 4 3 3 3 4 4 4 3 4 4
6 19 26 23 7 6 4 3 3 4 1 1 1 0 3 3 4 4 6 3 3 3 6 3 5 4 4 4 4 2 2 3 4 3 3 4 5 7 6 4 5 7 6 3 3 3 4 4 4 5 4 4 5 6
29 35 32 11 9 4 5 3 1 3 2 2 3 3 3 3 3 4 4 2 3 2 3 2 4 3 4 2 3 3 3 4 5 4 2 2 3 4 5 6 5 6 5 4 4 5 3 3 3 3 3 4 4 5
14 11 16 8 4 6 4 1 4 3 2 3 2 3 3 2 3 2 2 1 3 2 1 3 3 2 2 1 2 3 5 5 4 4 4 3 3 3 2 2 3 3 3 3 3 3 4 4 2 1 2 3 3 4
4 12 5 4 5 3 4 3 4 2 3 2 2 2 3 2 2 2 2 3 2 3 3 3 3 3 2 3 3 3 5 6 5 5 6 8 4 2 2 4 4 3 3 3 3 3 3 2 1 1 1 3 4 3
11 5 4 4 6 4 2 0 3 2 4 2 1 3 2 2 1 2 1 3 3 2 2 2 3 2 4 1 5 5 4 5 4 3 3 3 3 2 2 2 3 3 2 3 2 3 2 1 1 1 2 3 2 2
9 6 4 4 4 4 2 3 2 3 3 2 3 4 2 2 0 1 3 3 2 2 2 4 4 4 3 4 2 1 0 2 4 2 1 4 2 1 1 1 2 1 1 2 2 2 1 1 3 2 3 2 3 2
7 3 3 4 2 5 5 4 3 3 3 3 4 3 2 1 2 2 4 3 2 2 3 3 2 2 4 2 1 1 1 2 4 4 1 1 3 2 3 3 3 3 1 2 1 2 2 2 2 2 2 2 4 6
6 1 2 3 2 4 5 5 4 5 4 3 2 2 1 2 2 6 4 3 3 4 5 7 6 4 2 1 4 2 3 1 3 4 0 1 2 3 3 3 2 2 3 2 3 2 1 0 1 3 4 6 10 6
5 2 1 1 3 4 5 4 3 3 4 5 5 5 4 5 6 4 0 0 1 1 2 3 3 4 6 4 3 3 2 2 3 4 4 3 3 1 3 4 3 2 1 2 2 2 1 2 2 2 4 4 4 5
3 3 6 3 3 2 5 3 4 4 4 4 6 5 7 7 4 0 1 2 1 2 5 4 3 4 5 4 5 6 5 3 6 5 5 4 3 3 3 3 2 5 2 1 2 2 2 3 3 5 5 5 6 3
3 1 3 4 4 3 2 2 3 2 1 4 3 3 3 1 1 1 1 1 1 1 6 6 4 4 7 5 4 3 4 4 5 4 3 0 2 3 2 2 2 2 1 2 5 4 4 5 4 4 2 2 4 4
2 1 4 3 3 2 2 2 2 1 2 2 1 2 1 1 1 0 1 2 2 2 2 4 4 3 6 6 4 4 3 1 1 4 5 4 5 2 1 1 1 1 0 1 3 4 7 4 6 5 4 4 4 5
2 2 4 4 3 2 2 1 1 2 1 2 2 2 2 1 1 1 1 1 3 4 5 4 3 1 5 5 4 5 1 2 1 3 4 3 3 2 2 3 2 1 1 0 1 2 1 3 2 4 6 6 8 8
3 3 4 4 2 1 1 1 1 2 1 2 2 1 1 1 1 2 2 3 3 3 4 5 5 4 3 2 2 1 7 7 4 3 4 3 2 4 3 3 2 2 2 2 2 1 1 1 3 4 5 7 7 7
3 3 3 4 3 2 2 2 3 2 2 1 1 0 0 1 4 2 1 0 1 3 4 4 2 5 6 5 5 5 7 3 5 5 4 5 3 1 3 2 2 2 3 3 3 2 2 2 3 4 5 5 7 7
Wind_Direction
284 283 280 281 282 283 281 283 283 279 282 297 308 326 284 188 172 97 126 102 112 92 33 14 357 120 85 111 148 178 91 307 72 84 119 204 141 199 138 181 177 174 163 202 141 233 292 352 332 43 349 326 358 336
278 278 277 278 278 276 272 271 272 273 271 286 299 312 320 189 179 123 74 6 69 76 102 64 85 44 17 113 126 59 165 164 175 97 95 114 140 69 156 231 147 220 185 185 179 216 227 132 158 136 137 256 289 298
271 271 271 272 273 269 267 264 264 265 257 268 288 306 307 179 155 124 146 186 73 103 44 45 351 329 12 347 233 120 281 156 108 152 152 149 129 128 160 243 231 253 175 213 339 285 342 289 169 100 25 299 293 272
268 267 265 264 264 263 259 254 254 256 244 253 265 280 219 167 157 125 149 154 92 96 109 334 343 3 318 353 84 83 125 74 97 72 96 128 127 154 201 181 204 203 129 188 267 285 295 205 150 25 329 318 311 289
266 264 261 261 255 251 249 247 246 248 235 241 257 259 173 166 143 108 113 184 204 124 129 143 321 342 348 26 60 56 78 85 68 61 66 151 98 111 15 48 245 187 186 169 220 202 180 254 323 310 311 305 297 288
266 263 259 255 253 245 236 234 233 238 227 227 257 281 177 163 152 144 60 344 348 113 110 105 292 2 349 30 53 51 55 70 80 112 132 153 225 105 130 231 248 192 182 171 168 167 221 256 280 279 299 303 289 286
263 258 253 246 241 235 223 221 220 226 218 217 204 265 165 161 149 112 169 225 180 110 86 103 101 326 355 23 27 34 36 70 88 110 73 141 97 100 146 237 235 180 163 147 215 274 300 246 281 310 303 286 291 277
260 252 244 236 228 219 210 208 208 211 208 199 276 141 126 119 94 21 358 49 1 83 70 111 83 198 4 50 52 2 57 35 14 114 47 144 110 108 250 235 193 162 165 167 209 210 248 301 328 315 293 297 313 317
258 248 237 224 210 200 198 196 195 200 195 246 133 116 96 45 102 166 138 36 45 121 113 99 149 186 148 94 83 45 74 62 336 77 247 117 196 230 226 206 180 198 184 168 274 261 230 325 304 309 307 306 311 323
256 236 217 201 188 186 186 183 177 208 150 125 118 81 117 158 116 113 11 24 16 360 61 96 134 135 147 125 65 100 13 123 96 250 109 219 255 246 216 198 166 171 179 198 198 244 162 305 316 329 320 331 354 354
248 183 174 168 172 173 175 166 175 156 132 85 97 86 110 134 73 46 118 148 185 18 151 149 148 136 219 130 159 178 160 119 76 255 135 269 267 245 197 177 177 177 193 197 193 239 253 262 303 325 325 341 1 6
126 139 150 157 157 158 151 161 154 131 106 126 103 95 126 92 94 128 201 48 202 202 146 137 171 148 159 145 110 172 117 70 219 156 225 256 251 235 157 145 159 168 169 176 178 247 269 315 15 324 322 344 346 355
136 142 146 147 141 123 151 151 119 123 122 111 85 124 134 106 124 176 189 234 148 170 167 163 134 128 118 88 83 115 105 198 130 213 237 227 237 162 164 131 137 153 148 125 184 111 69 62 72 334 329 343 349 9
135 137 140 134 121 135 153 132 138 133 96 107 143 140 183 179 221 184 175 152 159 137 140 131 110 124 134 93 147 104 206 139 215 232 236 240 200 164 157 148 148 166 159 149 138 118 102 105 234 278 276 287 313 319
135 135 134 130 136 142 146 142 105 43 71 106 108 174 188 152 95 105 107 109 124 143 133 112 77 94 122 110 145 122 165 223 213 229 229 218 161 146 155 166 168 162 160 162 129 103 117 138 256 306 346 314 288 283
120 113 89 157 140 139 130 111 47 65 62 70 68 123 114 91 120 53 99 121 143 144 111 68 108 87 177 139 152 198 155 218 237 215 220 143 143 147 154 167 171 159 164 164 162 160 60 13 10 324 307 293 276 276
75 50 146 144 136 129 85 70 68 55 85 66 28 30 95 82 122 141 134 157 151 132 123 118 113 188 105 84 203 189 205 217 212 223 174 157 156 161 157 152 166 164 162 159 162 182 215 231 245 259 280 282 270 274
86 139 120 125 122 82 59 39 82 65 66 45 101 118 113 73 118 104 105 143 121 115 116 173 127 130 170 171 218 225 205 233 192 173 155 136 138 144 153 159 167 171 173 170 181 197 204 225 245 260 268 277 306 293
158 152 140 133 96 85 77 44 45 95 102 102 122 51 75 60 36 97 119 72 84 107 111 63 95 172 211 207 191 198 171 166 147 145 121 134 145 153 159 142 165 181 189 168 191 226 254 265 280 282 296 320 292 293
146 136 133 117 52 83 89 51 55 86 80 51 40 44 58 59 73 92 90 65 80 90 64 109 195 210 183 215 179 152 148 139 124 103 108 161 160 132 168 167 179 186 193 211 231 241 248 270 251 237 243 248 262 271
86 90 73 69 60 55 86 69 54 65 86 67 14 55 67 38 99 57 56 352 55 126 190 209 211 153 97 106 104 114 117 128 149 145 164 168 183 151 169 191 154 163 185 199 216 238 214 221 232 258 242 276 277 279
85 82 87 62 79 68 69 16 107 107 63 80 58 41 78 71 76 53 306 52 221 220 187 179 188 147 106 115 102 96 127 105 98 96 89 111 122 138 202 196 160 200 206 217 188 198 222 225 223 252 256 282 311 301
105 74 67 85 89 61 90 348 84 33 101 111 92 83 56 81 37 334 137 227 249 203 152 145 131 80 111 55 91 78 99 119 129 144 138 128 116 113 92 149 159 158 223 269 172 180 202 194 339 41 341 339 352 313
46 55 69 75 83 111 110 72 83 93 102 78 86 105 144 119 348 74 236 242 219 107 158 164 138 97 51 40 79 134 152 86 106 65 25 117 120 213 138 172 158 169 137 127 137 150 157 145 24 21 14 351 324 312
101 35 101 96 100 113 105 123 111 94 110 127 125 136 155 151 153 196 236 250 178 190 167 138 105 95 131 120 94 200 253 142 148 148 299 121 107 62 36 32 63 51 19 105 129 104 62 35 33 17 321 298 292 297
82 1 78 133 135 126 160 124 147 138 128 116 89 101 143 136 157 237 222 202 202 175 173 172 151 130 88 133 139 164 198 178 119 99 319 133 142 141 169 156 132 332 4 77 102 92 58 8 314 311 304 317 322 332
122 148 75 23 95 113 95 76 94 120 123 146 157 165 160 176 226 237 138 167 195 217 153 125 137 139 140 137 104 80 78 72 95 115 108 84 62 39 132 139 156 183 125 99 106 127 179 286 298 298 287 292 265 264
105 164 138 176 95 18 108 108 130 159 142 143 138 177 182 201 221 89 21 11 92 89 82 63 39 85 108 104 114 116 82 75 90 88 97 78 61 44 46 46 30 93 90 158 158 158 192 234 249 266 273 279 289 274
81 101 111 78 83 62 69 130 135 98 90 149 176 193 212 47 15 356 45 103 133 133 110 108 50 82 82 75 59 46 113 125 105 94 96 210 352 302 3 21 28 30 47 14 335 332 248 250 265 294 359 293 293 294
137 335 98 75 80 91 60 8 67 56 51 58 64 101 95 76 43 36 97 106 112 108 92 101 126 118 135 126 118 66 23 22 190 144 154 194 209 196 202 284 318 298 339 3 336 334 343 6 345 0 355 333 330 312
79 87 74 53 76 55 51 21 49 56 44 63 8 66 79 87 65 73 94 108 119 121 117 120 78 68 124 132 126 121 122 282 103 82 95 111 134 181 236 247 243 207 188 239 327 284 324 333 331 327 321 329 323 336
35 59 116 107 103 124 266 71 78 83 29 66 31 51 60 99 124 223 167 127 121 138 181 150 137 181 186 119 94 47 98 124 160 173 155 151 210 228 228 234 215 163 188 222 241 99 76 313 321 318 316 317 314 313
105 80 78 112 123 180 190 108 42 83 38 73 62 34 271 184 175 188 149 267 173 165 163 157 129 111 130 124 125 113 113 131 165 168 198 220 226 226 169 175 153 152 120 99 76 65 18 11 337 322 318 322 332 333